| time (UTC) | temp F | wind direction | speed knots | gust knots | rain 1hr in | rain 24hr in | rain mn in | humidity % | barometer mb |
| 20260505204508 | 39 | 301 | 0.0 | 1.7 | 0.00 | 0.00 | 0.00 | 75 | 1011.6 |
| 20260505203005 | 40 | 202 | 0.0 | 0.9 | 0.00 | 0.00 | 0.00 | 72 | 1011.3 |
| 20260505201507 | 41 | 190 | 0.0 | 0.0 | 0.00 | 0.00 | 0.00 | 71 | 1011.2 |
| 20260505200003 | 42 | 190 | 0.0 | 1.7 | 0.00 | 0.00 | 0.00 | 70 | 1011.2 |
| 20260505194504 | 42 | 136 | 0.0 | 1.7 | 0.00 | 0.00 | 0.00 | 68 | 1011.1 |
| 20260505193000 | 44 | 140 | 0.9 | 1.7 | 0.00 | 0.00 | 0.00 | 66 | 1011.0 |
| 20260505191602 | 44 | 202 | 0.0 | 0.9 | 0.00 | 0.00 | 0.00 | 63 | 1010.8 |
| 20260505190058 | 45 | 198 | 0.0 | 4.3 | 0.00 | 0.00 | 0.00 | 61 | 1010.6 |
| 20260505184559 | 46 | 230 | 2.6 | 6.1 | 0.00 | 0.00 | 0.00 | 60 | 1010.5 |
| 20260505183057 | 46 | 189 | 4.3 | 8.7 | 0.00 | 0.00 | 0.00 | 58 | 1010.4 |
| 20260505181556 | 48 | 204 | 3.5 | 9.6 | 0.00 | 0.00 | 0.00 | 55 | 1010.3 |
| 20260505180100 | 49 | 170 | 4.3 | 8.7 | 0.00 | 0.00 | 0.00 | 53 | 1010.2 |
| 20260505174555 | 50 | 203 | 4.3 | 10.4 | 0.00 | 0.00 | 0.00 | 52 | 1010.3 |
| 20260505173054 | 50 | 209 | 6.1 | 9.6 | 0.00 | 0.00 | 0.00 | 50 | 1010.3 |
| 20260505171556 | 51 | 227 | 4.3 | 10.4 | 0.00 | 0.00 | 0.00 | 50 | 1010.3 |
| 20260505170053 | 51 | 168 | 4.3 | 9.6 | 0.00 | 0.00 | 0.00 | 51 | 1010.2 |
| 20260505164551 | 51 | 174 | 6.1 | 12.2 | 0.00 | 0.00 | 0.00 | 47 | 1010.1 |
| 20260505163051 | 49 | 230 | 5.2 | 10.4 | 0.00 | 0.00 | 0.00 | 48 | 1010.1 |
| 20260505161550 | 48 | 248 | 7.0 | 15.6 | 0.00 | 0.00 | 0.00 | 46 | 1010.1 |
| 20260505153052 | 51 | 217 | 8.7 | 13.0 | 0.00 | 0.00 | 0.00 | 43 | 1009.9 |
| 20260505151549 | 51 | 184 | 10.4 | 16.5 | 0.00 | 0.00 | 0.00 | 39 | 1009.6 |
| 20260505124535 | 52 | 325 | 2.6 | 11.3 | 0.00 | 0.00 | 0.00 | 28 | 1009.8 |
| 20260505123033 | 51 | 289 | 1.7 | 8.7 | 0.00 | 0.00 | 0.00 | 30 | 1009.9 |
| 20260505121537 | 51 | 304 | 4.3 | 11.3 | 0.00 | 0.00 | 0.00 | 28 | 1009.9 |
| 20260505120029 | 51 | 234 | 1.7 | 9.6 | 0.00 | 0.00 | 0.00 | 32 | 1009.8 |
| 20260505114525 | 50 | 186 | 5.2 | 13.9 | 0.00 | 0.00 | 0.00 | 35 | 1010.0 |
| 20260505113037 | 50 | 340 | 6.1 | 13.0 | 0.00 | 0.00 | 0.00 | 32 | 1010.0 |
| 20260505111538 | 49 | 309 | 5.2 | 11.3 | 0.00 | 0.00 | 0.00 | 30 | 1010.1 |
| 20260505101523 | 47 | 304 | 5.2 | 10.4 | 0.00 | 0.00 | 0.00 | 37 | 1010.1 |
| 20260505100012 | 46 | 298 | 3.5 | 10.4 | 0.00 | 0.00 | 0.00 | 36 | 1010.2 |
| 20260505094509 | 46 | 290 | 0.9 | 11.3 | 0.00 | 0.00 | 0.00 | 42 | 1010.2 |
| 20260505093008 | 46 | 256 | 1.7 | 9.6 | 0.00 | 0.00 | 0.00 | 39 | 1010.1 |
| 20260505091505 | 45 | 294 | 1.7 | 9.6 | 0.00 | 0.00 | 0.00 | 39 | 1010.2 |
| 20260505090005 | 44 | 318 | 1.7 | 7.0 | 0.00 | 0.00 | 0.00 | 41 | 1010.2 |
| 20260505084505 | 44 | 293 | 5.2 | 9.6 | 0.00 | 0.00 | 0.00 | 40 | 1010.2 |
| 20260505083108 | 44 | 268 | 5.2 | 8.7 | 0.00 | 0.00 | 0.00 | 44 | 1010.1 |
| 20260505081559 | 43 | 300 | 2.6 | 9.6 | 0.00 | 0.00 | 0.00 | 45 | 1010.0 |
| 20260505080056 | 43 | 332 | 2.6 | 7.8 | 0.00 | 0.00 | 0.00 | 46 | 1009.9 |
| 20260505074555 | 42 | 323 | 0.9 | 7.8 | 0.00 | 0.00 | 0.00 | 46 | 1009.8 |
| 20260505073056 | 42 | 337 | 2.6 | 7.8 | 0.00 | 0.00 | 0.00 | 46 | 1009.7 |
| 20260505071554 | 41 | 34 | 2.6 | 10.4 | 0.00 | 0.00 | 0.00 | 48 | 1009.6 |
| 20260505064555 | 40 | 336 | 2.6 | 7.8 | 0.00 | 0.00 | 0.00 | 51 | 1009.7 |
| 20260505063049 | 39 | 344 | 4.3 | 7.8 | 0.00 | 0.00 | 0.00 | 52 | 1009.6 |
| 20260505061611 | 39 | 273 | 2.6 | 8.7 | 0.00 | 0.00 | 0.00 | 54 | 1009.7 |
| 20260505060053 | 38 | 281 | 3.5 | 7.0 | 0.00 | 0.00 | 0.00 | 56 | 1009.5 |
| 20260505054549 | 37 | 339 | 2.6 | 4.3 | 0.00 | 0.00 | 0.00 | 59 | 1009.5 |
| 20260505053045 | 36 | 265 | 2.6 | 5.2 | 0.00 | 0.00 | 0.00 | 60 | 1009.4 |
| 20260505051544 | 36 | 251 | 0.9 | 3.5 | 0.00 | 0.00 | 0.00 | 61 | 1009.3 |
| 20260505041538 | 32 | 205 | 0.0 | 3.5 | 0.00 | 0.00 | 0.00 | 69 | 1008.8 |
| 20260505040051 | 32 | 228 | 1.7 | 2.6 | 0.00 | 0.00 | 0.00 | 72 | 1008.6 |
| 20260505034541 | 31 | 175 | 0.9 | 2.6 | 0.00 | 0.00 | 0.00 | 73 | 1008.5 |
| 20260505033032 | 32 | 97 | 0.0 | 1.7 | 0.00 | 0.00 | 0.00 | 70 | 1008.5 |
| 20260505031528 | 33 | 79 | 1.7 | 3.5 | 0.00 | 0.00 | 0.00 | 68 | 1008.5 |
| 20260505030027 | 33 | 322 | 0.0 | 3.5 | 0.00 | 0.00 | 0.00 | 67 | 1008.3 |
| 20260505024523 | 34 | 238 | 0.0 | 3.5 | 0.00 | 0.00 | 0.00 | 67 | 1008.1 |
| 20260505023021 | 34 | 325 | 0.9 | 3.5 | 0.00 | 0.00 | 0.00 | 66 | 1008.1 |
| 20260505021520 | 35 | 270 | 0.9 | 3.5 | 0.00 | 0.00 | 0.00 | 66 | 1008.1 |
| 20260505020020 | 35 | 238 | 1.7 | 5.2 | 0.00 | 0.00 | 0.00 | 66 | 1007.9 |
| 20260505014515 | 36 | 248 | 0.9 | 3.5 | 0.00 | 0.00 | 0.00 | 63 | 1007.7 |
| 20260505013011 | 37 | 287 | 1.7 | 7.0 | 0.00 | 0.00 | 0.00 | 61 | 1007.6 |
| 20260505011509 | 37 | 292 | 1.7 | 7.0 | 0.00 | 0.00 | 0.00 | 61 | 1007.6 |
| 20260505010006 | 37 | 277 | 0.9 | 3.5 | 0.00 | 0.00 | 0.00 | 61 | 1007.3 |
| 20260505004506 | 38 | 261 | 0.9 | 4.3 | 0.00 | 0.00 | 0.00 | 62 | 1007.3 |
| 20260505003100 | 38 | 226 | 0.9 | 10.4 | 0.00 | 0.00 | 0.00 | 60 | 1007.3 |
| 20260505001557 | 39 | 268 | 3.5 | 9.6 | 0.00 | 0.00 | 0.00 | 59 | 1006.8 |
| 20260505000106 | 39 | 272 | 7.0 | 13.0 | 0.00 | 0.00 | 0.00 | 59 | 1006.4 |
| 20260504234604 | 39 | 272 | 4.3 | 10.4 | 0.00 | 0.00 | 0.00 | 58 | 1006.6 |
| 20260504233050 | 40 | 249 | 2.6 | 8.7 | 0.00 | 0.00 | 0.00 | 57 | 1006.7 |
| 20260504231550 | 40 | 265 | 0.9 | 7.0 | 0.00 | 0.00 | 0.00 | 58 | 1006.8 |
| 20260504230045 | 41 | 281 | 2.6 | 6.1 | 0.00 | 0.00 | 0.00 | 56 | 1006.7 |
| 20260504224542 | 41 | 280 | 3.5 | 12.2 | 0.00 | 0.00 | 0.00 | 57 | 1006.3 |
| 20260504223040 | 42 | 279 | 1.7 | 11.3 | 0.00 | 0.00 | 0.00 | 58 | 1006.2 |
| 20260504221540 | 42 | 286 | 2.6 | 12.2 | 0.00 | 0.00 | 0.00 | 57 | 1006.0 |
| 20260504220045 | 43 | 288 | 3.5 | 11.3 | 0.00 | 0.00 | 0.00 | 59 | 1005.9 |
| 20260504214535 | 43 | 297 | 5.2 | 11.3 | 0.00 | 0.00 | 0.00 | 61 | 1005.5 |
| 20260504213031 | 44 | 302 | 4.3 | 10.4 | 0.00 | 0.00 | 0.00 | 62 | 1005.4 |
| 20260504211528 | 45 | 331 | 6.1 | 12.2 | 0.00 | 0.00 | 0.00 | 61 | 1005.4 |
| 20260504210021 | 45 | 346 | 7.0 | 13.0 | 0.00 | 0.00 | 0.00 | 59 | 1005.1 |